Branson, MO

1:21 AM CDT on June 26, 2017 (GMT -0500)
Branson

Weather History for KBBG - January, 2013

Change the Weather History Date:

Wednesday, January 23, 2013

  Actual Average (KHRO) Record (KHRO)
Temperature  
Mean Temperature 41 °F -  
Max Temperature 59 °F 48 °F 75 °F (1943)
Min Temperature 23 °F 28 °F -17 °F (1926)
Degree Days  
Heating Degree Days 24    
Moisture  
Dew Point 28 °F    
Average Humidity 70    
Maximum Humidity 86    
Minimum Humidity 43    
Precipitation  
Precipitation 0.00 in - - ()
Sea Level Pressure  
Sea Level Pressure 30.22 in    
Wind  
Wind Speed 4 mph (ENE)    
Max Wind Speed 10 mph    
Max Gust Speed -    
Visibility 10 miles    
Events      
Averages and records for this station are not official NWS values.
T = Trace of Precipitation, MM = Missing Value Source: NWS Daily Summary

Daily Weather History Graph

Daily Weather History Graph

Search for Another Location

Airport or City:

Trip Planner

Search our weather history database for the weather conditions in past years. The results will help you decide how hot, cold, wet, or windy it might be!

Date:

Astronomy

Jan. 23, 2013 Rise Set
Actual Time 7:20 AM CST 5:29 PM CST
Civil Twilight 6:52 AM CST 5:57 PM CST
Nautical Twilight 6:21 AM CST 6:28 PM CST
Astronomical Twilight 5:50 AM CST 6:59 PM CST
Moon 2:41 PM CST (1/23) 4:31 AM CST (1/23)
Length of Visible Light 11h 04m
Length of Day
10h 09m
Waxing Gibbous, 89% of the Moon is Illuminated
Jan 23
Waxing Gibbous
Jan 26
Full
Feb 3
Last Quarter
Feb 10
New
Feb 17
First Quarter

Hourly Weather History & Observations

Time (CST) Temp. Windchill Dew Point Humidity Pressure Visibility Wind Dir Wind Speed Gust Speed Precip Events Conditions
12:15 AM 24.8 °F - 17.6 °F 74% 30.27 in 10.0 mi Calm Calm - N/A   Scattered Clouds
12:35 AM 24.8 °F 16.9 °F 17.6 °F 74% 30.26 in 10.0 mi ESE 6.9 mph - N/A   Scattered Clouds
12:55 AM 24.8 °F 17.9 °F 17.6 °F 74% 30.26 in 10.0 mi ESE 5.8 mph - N/A   Scattered Clouds
1:15 AM 24.8 °F 19.1 °F 17.6 °F 74% 30.26 in 10.0 mi ESE 4.6 mph - N/A   Scattered Clouds
1:35 AM 24.8 °F 17.9 °F 17.6 °F 74% 30.25 in 10.0 mi ESE 5.8 mph - N/A   Mostly Cloudy
1:55 AM 24.8 °F 19.1 °F 17.6 °F 74% 30.26 in 10.0 mi SE 4.6 mph - N/A   Mostly Cloudy
2:15 AM 24.8 °F 19.1 °F 17.6 °F 74% 30.25 in 10.0 mi SE 4.6 mph - N/A   Scattered Clouds
2:55 AM 24.8 °F 17.9 °F 19.4 °F 80% 30.25 in 10.0 mi SE 5.8 mph - N/A   Partly Cloudy
3:15 AM 23.0 °F 15.8 °F 19.4 °F 86% 30.25 in 10.0 mi SE 5.8 mph - N/A   Scattered Clouds
3:55 AM 23.0 °F 15.8 °F 19.4 °F 86% 30.24 in 10.0 mi SE 5.8 mph - N/A   Partly Cloudy
4:15 AM 23.0 °F 15.8 °F 19.4 °F 86% 30.24 in 10.0 mi SE 5.8 mph - N/A   Clear
4:35 AM 23.0 °F 18.4 °F 19.4 °F 86% 30.24 in 10.0 mi ESE 3.5 mph - N/A   Clear
4:55 AM 23.0 °F 18.4 °F 19.4 °F 86% 30.24 in 10.0 mi ESE 3.5 mph - N/A   Clear
5:15 AM 23.0 °F 18.4 °F 19.4 °F 86% 30.24 in 10.0 mi ESE 3.5 mph - N/A   Clear
5:35 AM 23.0 °F 15.8 °F 19.4 °F 86% 30.23 in 10.0 mi SE 5.8 mph - N/A   Clear
6:45 AM 23.0 °F - 19.4 °F 86% 30.24 in 10.0 mi Calm Calm - N/A   Clear
7:45 AM 23.0 °F 15.8 °F 19.4 °F 86% 30.24 in 8.0 mi SE 5.8 mph - N/A   Partly Cloudy
8:45 AM 26.6 °F 21.2 °F 21.2 °F 80% 30.25 in 10.0 mi SE 4.6 mph - N/A   Clear
9:45 AM 32.0 °F - 23.0 °F 69% 30.26 in 10.0 mi Calm Calm - N/A   Partly Cloudy
10:55 AM 41.0 °F 39.0 °F 26.6 °F 57% 30.25 in 10.0 mi ESE 3.5 mph - N/A   Partly Cloudy
11:50 AM 50.0 °F - 35.6 °F 58% 30.21 in 10.0 mi Calm Calm - N/A   Partly Cloudy
12:50 PM 53.6 °F - 37.4 °F 54% 30.17 in 10.0 mi West 3.5 mph - N/A   Scattered Clouds
1:50 PM 55.4 °F - 37.4 °F 51% 30.16 in 10.0 mi WNW 5.8 mph - N/A   Scattered Clouds
2:45 PM 57.2 °F - 37.4 °F 48% 30.15 in 10.0 mi West 3.5 mph - N/A   Mostly Cloudy
3:57 PM 59.0 °F - 37.4 °F 45% 30.15 in 10.0 mi NW 6.9 mph - N/A   Scattered Clouds
4:50 PM 57.2 °F - 37.4 °F 48% 30.14 in 10.0 mi Calm Calm - N/A   Mostly Cloudy
5:45 PM 50.0 °F - 37.4 °F 62% 30.15 in 10.0 mi Calm Calm - N/A   Mostly Cloudy
5:50 PM 50.0 °F - 28.4 °F 43% 30.05 in 10.0 mi SW 8.1 mph - N/A   Overcast
6:45 PM 50.0 °F - 37.4 °F 62% 30.16 in 10.0 mi Calm Calm - N/A   Mostly Cloudy
7:45 PM 46.4 °F 44.3 °F 37.4 °F 71% 30.19 in 10.0 mi NW 4.6 mph - N/A   Mostly Cloudy
7:55 PM 44.6 °F 42.2 °F 35.6 °F 71% 30.20 in 10.0 mi NNW 4.6 mph - N/A   Clear
8:15 PM 48.2 °F - 37.4 °F 66% 30.21 in 10.0 mi North 5.8 mph - N/A   Clear
8:35 PM 46.4 °F 42.4 °F 37.4 °F 71% 30.22 in 10.0 mi North 8.1 mph - N/A   Clear
8:45 PM 46.4 °F 41.9 °F 37.4 °F 71% 30.22 in 10.0 mi North 9.2 mph - N/A   Mostly Cloudy
8:55 PM 46.4 °F 41.9 °F 37.4 °F 71% 30.22 in 10.0 mi North 9.2 mph - N/A   Clear
9:15 PM 44.6 °F 40.7 °F 35.6 °F 71% 30.23 in 10.0 mi North 6.9 mph - N/A   Clear
9:35 PM 44.6 °F 39.2 °F 35.6 °F 71% 30.23 in 10.0 mi North 10.4 mph - N/A   Clear
9:55 PM 42.8 °F 37.5 °F 35.6 °F 76% 30.25 in 10.0 mi North 9.2 mph - N/A   Clear
10:15 PM 41.0 °F 37.1 °F 33.8 °F 76% 30.25 in 10.0 mi North 5.8 mph - N/A   Clear
10:35 PM 41.0 °F 37.1 °F 32.0 °F 70% 30.26 in 10.0 mi NNE 5.8 mph - N/A   Scattered Clouds
10:55 PM 41.0 °F 35.8 °F 30.2 °F 65% 30.26 in 10.0 mi NNE 8.1 mph - N/A   Mostly Cloudy
11:15 PM 41.0 °F 38.0 °F 28.4 °F 61% 30.26 in 10.0 mi NNE 4.6 mph - N/A   Overcast
11:35 PM 41.0 °F 39.0 °F 28.4 °F 61% 30.26 in 10.0 mi NNE 3.5 mph - N/A   Overcast
11:55 PM 41.0 °F 37.1 °F 28.4 °F 61% 30.28 in 10.0 mi North 5.8 mph - N/A   Overcast